Date,TemperatureHighF,TemperatureAvgF,TemperatureLowF,DewpointHighF,DewpointAvgF,DewpointLowF,HumidityHigh,HumidityAvg,HumidityLow,PressureMaxIn,PressureMinIn,WindSpeedMaxMPH,WindSpeedAvgMPH,GustSpeedMaxMPH,PrecipitationSumIn
2013-1-1,83,80,78,76,75,74,91,84,78,30.04,29.90,13,9,18,0.05
2013-1-2,85,82,79,76,75,74,89,80,73,30.00,29.92,17,8,24,0.00
2013-1-3,87,81,77,79,76,73,91,84,77,30.04,29.95,17,5,24,0.07
2013-1-4,86,81,77,78,75,73,92,83,76,30.11,30.00,20,8,27,0.14
2013-1-5,86,81,78,78,76,73,90,83,74,30.09,30.00,12,6,20,0.00
2013-1-6,82,80,78,77,76,73,93,86,78,30.07,29.97,17,8,25,0.05
2013-1-7,81,81,80,76,76,76,88,85,83,30.00,29.96,13,7,18,0.00
2013-1-8,85,81,78,80,76,74,91,87,81,30.01,29.92,16,10,24,0.07
2013-1-9,85,82,80,80,78,76,92,89,83,30.01,29.90,20,12,28,0.00
2013-1-10,83,81,78,79,78,75,94,90,85,30.04,29.94,21,13,28,0.11
2013-1-11,85,82,80,78,77,75,92,85,78,30.04,29.95,18,9,25,0.00
2013-1-12,84,81,79,77,76,74,89,84,78,29.99,29.92,18,9,25,0.00
2013-1-13,83,81,80,76,75,73,88,81,76,29.97,29.87,18,12,25,0.00
2013-1-14,85,82,79,76,75,74,86,81,74,30.02,29.94,14,10,23,0.00
2013-1-15,82,80,77,78,75,73,93,87,81,30.00,29.92,22,8,28,0.35
2013-1-16,85,81,79,76,74,73,87,79,73,30.01,29.90,8,5,18,0.00
2013-1-17,87,80,71,78,73,64,91,79,70,30.19,29.99,22,11,35,0.01
2013-1-18,77,73,69,66,62,60,80,70,61,30.26,30.13,18,13,31,0.00
2013-1-19,76,72,68,67,63,59,79,72,66,30.20,30.06,16,9,23,0.00
2013-1-20,82,75,70,70,67,64,88,75,60,30.14,30.00,13,7,20,0.04
2013-1-21,84,78,71,74,70,67,90,78,68,30.10,30.00,9,6,16,0.00
2013-1-22,84,77,73,76,72,70,91,84,74,30.13,30.01,10,5,16,2.84
2013-1-23,74,73,72,72,71,70,96,94,89,30.19,30.07,10,5,16,0.86
2013-1-24,76,73,71,74,71,69,98,94,89,30.19,30.11,12,7,20,0.08
2013-1-25,80,74,70,77,71,69,96,93,85,30.15,30.06,10,6,20,0.49
2013-1-26,78,75,72,76,74,71,98,96,90,30.11,30.02,16,6,24,0.61
2013-1-27,80,78,74,77,75,73,97,92,86,30.12,30.02,10,6,23,1.72
2013-1-28,84,80,77,78,77,75,95,89,83,30.11,30.02,12,6,17,0.07
2013-1-29,84,81,79,78,77,75,92,87,80,30.05,29.93,18,12,23,0.00
2013-1-30,83,81,79,77,76,74,91,85,78,29.96,29.86,21,12,27,0.00
2013-1-31,89,83,79,81,77,74,93,83,75,30.10,29.93,12,5,16,0.00